Regional Weather Roundup
Issued by NWS Mt. Holly, NJ

Home | Current Version | Previous Version | Text Only | Print | Product List | Glossary On
Versions: 1 2 3 4 5 6 7 8 9 10 11 12 13 14 15 16 17 18 19 20 21 22 23 24 25 26 27 28 29 30 31 32 33 34 35 36 37 38 39 40 41 42 43 44 45 46 47 48 49 50
000
ASUS41 KPHI 260111
RWRPHI

REGIONAL WEATHER ROUNDUP
NATIONAL WEATHER SERVICE MOUNT HOLLY NJ
900 PM EDT SAT APR 25 2015

NOTE:  "FAIR" INDICATES FEW OR NO CLOUDS BELOW 12,000 FEET WITH NO
SIGNIFICANT WEATHER AND/OR OBSTRUCTIONS TO VISIBILITY.

 * = STATION DOES NOT REPORT PRECIPITATION (E.G. RAIN, SNOW, ETC.)
        OR FOG.

NJZ015>026-260200-
SOUTHERN NEW JERSEY

CITY           SKY/WX    TMP DP  RH WIND       PRES   REMARKS
POMONA         CLOUDY    49  31  49 SW8       29.74S
MILLVILLE      CLOUDY    48  34  58 SW5       29.74F
WRIGHTSTOWN    CLOUDY    49  27  42 SW9       29.70S
MOUNT HOLLY    CLOUDY    49  28  44 SW3       29.73S
TRENTON        MOCLDY    53  23  31 SW3       29.70S

$$
NJZ001>014-260200-
NORTHERN NEW JERSEY

CITY           SKY/WX    TMP DP  RH WIND       PRES   REMARKS
SUSSEX         CLEAR     43  28  55 CALM      29.72S
ANDOVER*         N/A     47  27  45 CALM      29.71R
MORRISTOWN     PTCLDY    50  28  43 CALM      29.71R
NEWARK         MOCLDY    55  23  28 N9        29.70R
TETERBORO      CLEAR     56  21  25 N6        29.69S
CALDWELL       CLEAR     53  23  31 CALM      29.71R
SOMERVILLE     MOCLDY    48  28  46 E3        29.68S
ALLAIRE*       MOCLDY    52  25  35 SW5       29.71S
TOMS RIVER*    CLOUDY    48  28  46 CALM      29.70F

$$
PAZ043-044-047-054-055-060>062-066>071-260200-
EASTERN PENNSYLVANIA

CITY           SKY/WX    TMP DP  RH WIND       PRES   REMARKS
PHILADELPHIA   CLOUDY    52  27  38 SW12      29.74S
NORTH PHILA    CLOUDY    53  26  35 SW7       29.73S
BLUE BELL      CLOUDY    52  32  46 CALM      29.71S
DOYLESTOWN     CLOUDY    49  25  39 SW3       29.70S
QUAKERTOWN*    CLOUDY    48  27  43 CALM      29.72S
POTTSTOWN      CLOUDY    50  25  37 VRB3      29.73S
LANCASTER      CLOUDY    50  23  34 CALM      29.71S
COATESVILLE    CLOUDY    46  32  57 SW3       29.73R
READING        CLOUDY    51  24  34 SW5       29.70S
ALLENTOWN      MOCLDY    52  25  35 CALM      29.71R
MOUNT POCONO   PTCLDY    44  22  41 N6        29.70S
HAZLETON       MOCLDY    46  23  39 N3        29.73S
WILKES BARRE   CLEAR     48  26  42 N8        29.72R

$$
DEZALL-MDZ008-012-015-019-020-260200-
DELAWARE AND EASTERN MARYLAND

CITY           SKY/WX    TMP DP  RH WIND       PRES   REMARKS
WILMINGTON     CLOUDY    49  32  52 SW8       29.74S
DOVER          CLOUDY    48  35  60 S7        29.71S
GEORGETOWN     LGT RAIN  45  42  89 CALM      29.76F
PATUXENT       CLOUDY    44  42  93 E6        29.72F
OCEAN CITY     LGT RAIN  45  43  93 CALM      29.76F FOG
WALLOPS ISLAND LGT RAIN  44  43  96 CALM      29.75F
CAMBRIDGE      CLOUDY    45  41  87 CALM      29.75F
SALISBURY      LGT RAIN  45  44  97 S3        29.75F FOG

$$
PAZ001-021-NYZ056-072-MDZ011-DCZ001-260200-
OTHER NEARBY LOCATIONS

CITY           SKY/WX    TMP DP  RH WIND       PRES   REMARKS
HARRISBURG     CLOUDY    51  29  42 SW10      29.71S
STATE COLLEGE  CLEAR     48  19  32 CALM      29.70F
WILLIAMSPORT   PTCLDY    51  23  33 NE7       29.72R
BINGHAMTON     CLEAR     40  24  53 N9        29.75R WCI  34
NEW YORK CITY  CLEAR     52  34  50 CALM      29.73R
BALTIMORE      LGT RAIN  43  39  86 W6        29.74F
WASHINGTON DC  LGT RAIN  46  38  73 W5        29.76F

$$


USA.gov is the U.S. government's official web portal to all federal, state and local government web resources and services.